When you browse on this site, cookies collect data to enhance your experience and personalize the content and advertising you see.
Visit our Privacy Policy to learn more. By continuing to use the site, you agree to this use of cookies and data.
  • In Romania
  • List of Countries
  • For 7 days
  • Water Temperature
  • Satellite Maps
  • Weather Map
  • Weather Widgets
  • user-avatar
    Login

    Hourly Weather Punevo

    Today, 25 March, Monday

    Time Temperature Precipitation Wind Pressure Humidity
    00:00 -1°C° 0 mm 2 mps 741 mmHg 75%
    01:00 -2°C° 0 mm 2 mps 741 mmHg 76%
    02:00 -2°C° 0 mm 2 mps 741 mmHg 77%
    03:00 -3°C° 0 mm 2 mps 740 mmHg 77%
    04:00 -3°C° 0 mm 2 mps 740 mmHg 78%
    05:00 -3°C° 0 mm 2 mps 740 mmHg 79%
    06:00 -2°C° 0 mm 2 mps 740 mmHg 74%
    07:00 -1°C° 0 mm 2 mps 740 mmHg 70%
    08:00 +1°C° 0 mm 3 mps 739 mmHg 64%
    09:00 +2°C° 0 mm 3 mps 739 mmHg 58%
    10:00 +4°C° 0 mm 4 mps 739 mmHg 51%
    11:00 +5°C° 0 mm 4 mps 739 mmHg 44%
    12:00 +5°C° 0 mm 4 mps 739 mmHg 44%
    13:00 +6°C° 0 mm 4 mps 738 mmHg 44%
    14:00 +7°C° 0 mm 3 mps 738 mmHg 44%
    15:00 +5°C° 0 mm 3 mps 738 mmHg 49%
    16:00 +6°C° 0 mm 2 mps 738 mmHg 54%
    17:00 +5°C° 0 mm 2 mps 737 mmHg 59%
    18:00 +4°C° 0 mm 2 mps 737 mmHg 63%
    19:00 +2°C° 0 mm 2 mps 737 mmHg 68%
    20:00 +1°C° 0 mm 2 mps 737 mmHg 73%
    21:00 +1°C° 0 mm 2 mps 737 mmHg 74%
    22:00 -1°C° 0 mm 2 mps 737 mmHg 75%
    23:00 -1°C° 0 mm 2 mps 737 mmHg 76%

    Tomorrow, 26 March, Tuesday

    Time Temperature Precipitation Wind Pressure Humidity
    00:00 -1°C° 0 mm 2 mps 737 mmHg 79%
    01:00 -1°C° 0 mm 2 mps 736 mmHg 81%
    02:00 -2°C° 0 mm 2 mps 736 mmHg 83%
    03:00 -1°C° 0.1 mm 2 mps 736 mmHg 85%
    04:00 -1°C° 0.1 mm 2 mps 736 mmHg 87%
    05:00 -1°C° 0.1 mm 2 mps 736 mmHg 88%
    06:00 -1°C° 0.2 mm 3 mps 736 mmHg 87%
    07:00 -1°C° 0.2 mm 3 mps 736 mmHg 86%
    08:00 0°C° 0.2 mm 3 mps 736 mmHg 85%
    09:00 -1°C° 0.1 mm 4 mps 737 mmHg 77%
    10:00 0°C° 0.1 mm 4 mps 737 mmHg 69%
    11:00 0°C° 0.1 mm 4 mps 737 mmHg 61%
    12:00 0°C° 0.1 mm 4 mps 737 mmHg 60%
    13:00 0°C° 0.1 mm 4 mps 737 mmHg 58%
    14:00 +1°C° 0.1 mm 4 mps 738 mmHg 57%
    15:00 +1°C° 0 mm 3 mps 738 mmHg 58%
    16:00 +1°C° 0 mm 3 mps 738 mmHg 59%
    17:00 +2°C° 0 mm 2 mps 738 mmHg 60%
    18:00 -1°C° 0 mm 2 mps 738 mmHg 65%
    19:00 -2°C° 0 mm 2 mps 739 mmHg 69%
    20:00 -1°C° 0 mm 1 mps 739 mmHg 73%
    21:00 -1°C° 0 mm 1 mps 739 mmHg 73%
    22:00 -1°C° 0 mm 1 mps 739 mmHg 73%
    23:00 -2°C° 0 mm 1 mps 740 mmHg 73%

    Day after tomorrow, 27 March, Wednesday

    Time Temperature Precipitation Wind Pressure Humidity
    00:00 -2°C° 0 mm 1 mps 740 mmHg 75%
    01:00 -2°C° 0 mm 1 mps 740 mmHg 76%
    02:00 -2°C° 0 mm 1 mps 740 mmHg 78%
    03:00 -4°C° 0 mm 2 mps 741 mmHg 79%
    04:00 -4°C° 0 mm 2 mps 741 mmHg 81%
    05:00 -5°C° 0 mm 2 mps 741 mmHg 82%
    06:00 -4°C° 0 mm 2 mps 742 mmHg 79%
    07:00 -4°C° 0 mm 3 mps 742 mmHg 76%
    08:00 -2°C° 0 mm 3 mps 743 mmHg 74%
    09:00 -1°C° 0.1 mm 3 mps 743 mmHg 68%
    10:00 -2°C° 0.1 mm 4 mps 744 mmHg 62%
    11:00 -1°C° 0.1 mm 4 mps 745 mmHg 57%
    12:00 -1°C° 0 mm 4 mps 745 mmHg 56%
    13:00 -1°C° 0 mm 4 mps 745 mmHg 56%
    14:00 -1°C° 0 mm 4 mps 746 mmHg 55%
    15:00 -1°C° 0 mm 4 mps 746 mmHg 56%
    16:00 -1°C° 0 mm 4 mps 747 mmHg 56%
    17:00 -1°C° 0 mm 4 mps 747 mmHg 57%
    18:00 -1°C° 0 mm 3 mps 748 mmHg 61%
    19:00 -1°C° 0 mm 3 mps 748 mmHg 66%
    20:00 -2°C° 0 mm 2 mps 749 mmHg 71%
    21:00 -3°C° 0 mm 2 mps 749 mmHg 74%
    22:00 -3°C° 0 mm 2 mps 750 mmHg 77%
    23:00 -4°C° 0 mm 2 mps 750 mmHg 80%

    28 March, Thursday

    Time Temperature Precipitation Wind Pressure Humidity
    00:00 -4°C° 0 mm 2 mps 750 mmHg 81%
    01:00 -5°C° 0 mm 3 mps 751 mmHg 82%
    02:00 -5°C° 0 mm 3 mps 751 mmHg 82%
    03:00 -5°C° 0 mm 3 mps 751 mmHg 83%
    04:00 -5°C° 0 mm 3 mps 752 mmHg 84%
    05:00 -6°C° 0 mm 3 mps 752 mmHg 85%
    06:00 -5°C° 0 mm 3 mps 752 mmHg 81%
    07:00 -4°C° 0 mm 3 mps 753 mmHg 77%
    08:00 -4°C° 0 mm 3 mps 753 mmHg 73%
    09:00 -1°C° 0 mm 3 mps 753 mmHg 66%
    10:00 0°C° 0 mm 3 mps 754 mmHg 58%
    11:00 +1°C° 0 mm 3 mps 754 mmHg 51%
    12:00 +2°C° 0 mm 3 mps 754 mmHg 47%
    13:00 +2°C° 0 mm 3 mps 753 mmHg 42%
    14:00 +3°C° 0 mm 3 mps 753 mmHg 38%
    15:00 +3°C° 0 mm 3 mps 753 mmHg 41%
    16:00 +3°C° 0 mm 2 mps 753 mmHg 44%
    17:00 +3°C° 0 mm 2 mps 753 mmHg 47%
    18:00 +2°C° 0 mm 2 mps 752 mmHg 53%
    19:00 +1°C° 0 mm 2 mps 752 mmHg 60%
    20:00 +1°C° 0 mm 2 mps 752 mmHg 67%
    21:00 0°C° 0 mm 3 mps 752 mmHg 69%
    22:00 0°C° 0 mm 3 mps 751 mmHg 72%
    23:00 -1°C° 0 mm 4 mps 751 mmHg 75%

    29 March, Friday

    Time Temperature Precipitation Wind Pressure Humidity
    00:00 -1°C° 0 mm 4 mps 750 mmHg 76%
    01:00 0°C° 0 mm 4 mps 749 mmHg 77%
    02:00 0°C° 0 mm 5 mps 748 mmHg 78%
    03:00 0°C° 0.1 mm 5 mps 748 mmHg 79%
    04:00 0°C° 0.1 mm 5 mps 747 mmHg 81%
    05:00 +1°C° 0.1 mm 6 mps 747 mmHg 83%
    06:00 +1°C° 0 mm 5 mps 747 mmHg 80%
    07:00 +1°C° 0 mm 5 mps 747 mmHg 77%
    08:00 +1°C° 0 mm 5 mps 748 mmHg 74%
    09:00 +2°C° 0 mm 5 mps 748 mmHg 68%
    10:00 +3°C° 0 mm 5 mps 748 mmHg 63%
    11:00 +3°C° 0 mm 6 mps 749 mmHg 58%
    12:00 +5°C° 0 mm 5 mps 749 mmHg 54%
    13:00 +6°C° 0 mm 5 mps 749 mmHg 50%
    14:00 +6°C° 0 mm 4 mps 749 mmHg 46%
    15:00 +6°C° 0 mm 4 mps 749 mmHg 49%
    16:00 +7°C° 0 mm 3 mps 749 mmHg 52%
    17:00 +7°C° 0 mm 2 mps 748 mmHg 56%
    18:00 +5°C° 0 mm 2 mps 748 mmHg 61%
    19:00 +4°C° 0 mm 2 mps 749 mmHg 67%
    20:00 +3°C° 0 mm 2 mps 749 mmHg 72%
    21:00 +3°C° 0 mm 2 mps 748 mmHg 74%
    22:00 +3°C° 0 mm 2 mps 748 mmHg 75%
    23:00 +2°C° 0 mm 2 mps 747 mmHg 77%

    30 March, Saturday

    Time Temperature Precipitation Wind Pressure Humidity
    00:00 +2°C° 0 mm 3 mps 747 mmHg 80%
    01:00 +2°C° 0 mm 3 mps 746 mmHg 83%
    02:00 +2°C° 0 mm 3 mps 746 mmHg 86%
    03:00 +2°C° 0 mm 3 mps 746 mmHg 90%
    04:00 +3°C° 0 mm 4 mps 745 mmHg 93%
    05:00 +3°C° 0 mm 4 mps 745 mmHg 96%
    06:00 +3°C° 0 mm 4 mps 745 mmHg 94%
    07:00 +4°C° 0 mm 4 mps 745 mmHg 93%
    08:00 +4°C° 0 mm 4 mps 745 mmHg 91%
    09:00 +4°C° 0 mm 4 mps 745 mmHg 88%
    10:00 +4°C° 0 mm 4 mps 745 mmHg 85%
    11:00 +5°C° 0 mm 4 mps 745 mmHg 83%
    12:00 +5°C° 0 mm 4 mps 745 mmHg 81%
    13:00 +6°C° 0 mm 4 mps 745 mmHg 79%
    14:00 +6°C° 0 mm 4 mps 745 mmHg 76%
    15:00 +7°C° 0 mm 3 mps 744 mmHg 76%
    16:00 +7°C° 0 mm 3 mps 744 mmHg 76%
    17:00 +7°C° 0 mm 3 mps 744 mmHg 76%
    18:00 +6°C° 0 mm 2 mps 744 mmHg 81%
    19:00 +5°C° 0 mm 2 mps 744 mmHg 86%
    20:00 +4°C° 0 mm 2 mps 744 mmHg 91%
    21:00 +4°C° 0 mm 2 mps 743 mmHg 91%
    22:00 +4°C° 0 mm 2 mps 743 mmHg 91%
    23:00 +3°C° 0 mm 3 mps 743 mmHg 91%
    Show more